Flag for Norway Weather past 2 weeks in Kongsvinger, Norway

Now
63 °F

Scattered clouds.


Feels Like: 63 °F
Forecast: 43 / 67 °F
Wind: 7 mph from Northeast

Location: Oslo Gardermoen Airport

Current Time: Aug 28, 2014 at 2:11:42 PM

Latest Report: Aug 28, 2014 at 1:20 PM


Visibility: N/A

Pressure: 29.95 "Hg

Humidity: 52%

Dew point: 45 °F

Location of KongsvingerLocation

Historic Weather in Kongsvinger — Graph

°F

Kongsvinger temperature yesterday

Maximum temperature yesterday: 64 °F (at 2:20 PM)
Minimum temperature yesterday: 48 °F (at 5:20 AM)
Average temperature yesterday: 56 °F

Past Weeks' High & Low Weather Summary

 TemperatureHumidityPressure
High68 °F (Aug 15, 4:20 PM)100% (Aug 17, 2:20 AM)29.98 "Hg (Aug 17, 2:20 AM)
Low43 °F (Aug 24, 3:50 AM)40% (Aug 15, 6:20 PM)29.18 "Hg (Aug 18, 12:50 PM)
Average55 °F79%29.58 "Hg
* Reported Aug 13 12:20 PM — Aug 28 12:50 PM, Kongsvinger, Weather by CustomWeather, © 2014

Note: Actual official high and low records may vary slightly from our data, if they occured in-between our weather recording intervals... More about our weather records

Advertising

Kongsvinger weather history for previous 24 hours

 ConditionsComfort  
Time TempWeatherWind HumidityBarometerVisibility
12:50 PM
Aug 28
61 °FScattered clouds.3 mph55%29.95 "HgN/A
12:20 PM63 °FPartly sunny.3 mph52%29.98 "HgN/A
11:50 AM61 °FSunny.5 mph52%29.98 "Hg10 mi
11:20 AM59 °FSunny.5 mph55%29.98 "Hg10 mi
10:50 AM59 °FPassing clouds.6 mph55%29.98 "HgN/A
10:20 AM59 °FPassing clouds.7 mph55%29.98 "HgN/A
9:50 AM57 °FPassing clouds.5 mph59%29.98 "HgN/A
9:20 AM57 °FPassing clouds.7 mph59%29.98 "HgN/A
8:50 AM55 °FPassing clouds.8 mph59%29.98 "HgN/A
8:20 AM55 °FPassing clouds.6 mph67%29.98 "HgN/A
7:50 AM54 °FSunny.No wind67%29.98 "Hg10 mi
7:20 AM52 °FSunny.6 mph72%29.98 "Hg10 mi
6:50 AM52 °FClear.7 mph72%29.98 "Hg10 mi
6:20 AM52 °FClear.9 mph67%29.98 "Hg10 mi
5:50 AM52 °FClear.9 mph77%29.98 "Hg10 mi
5:20 AM50 °FClear.7 mph82%29.95 "Hg10 mi
4:50 AM50 °FClear.6 mph76%29.98 "Hg10 mi
4:20 AM52 °FClear.7 mph72%29.98 "Hg10 mi
3:50 AM52 °FClear.6 mph72%29.98 "Hg10 mi
3:20 AM52 °FClear.5 mph72%29.98 "Hg10 mi
2:50 AM54 °FClear.2 mph67%29.98 "Hg10 mi
2:20 AM54 °FPassing clouds.5 mph67%29.98 "HgN/A
1:50 AM54 °FPassing clouds.3 mph67%29.98 "HgN/A
1:20 AM54 °FPassing clouds.3 mph67%29.98 "HgN/A
12:50 AM55 °FPassing clouds.3 mph63%29.95 "HgN/A
12:20 AM54 °FClear.5 mph72%29.95 "Hg10 mi
11:50 PM
Aug 27
55 °FClear.7 mph67%29.95 "Hg10 mi
11:20 PM55 °FClear.10 mph67%29.95 "Hg10 mi
10:50 PM55 °FClear.10 mph67%29.95 "Hg10 mi
10:20 PM55 °FClear.8 mph67%29.95 "Hg10 mi
9:50 PM54 °FClear.8 mph72%29.92 "Hg10 mi
9:20 PM55 °FSunny.2 mph67%29.92 "Hg10 mi
8:50 PM57 °FSunny.2 mph63%29.92 "Hg10 mi
7:50 PM59 °FPassing clouds.3 mph59%29.92 "HgN/A
7:20 PM61 °FPassing clouds.3 mph55%29.92 "HgN/A
6:50 PM63 °FSunny.5 mph52%29.92 "Hg10 mi
6:20 PM63 °FSunny.9 mph45%29.92 "Hg10 mi
5:50 PM63 °FSunny.9 mph45%29.89 "Hg10 mi
4:20 PM63 °FPassing clouds.9 mph45%29.92 "HgN/A
3:50 PM64 °FPassing clouds.12 mph40%29.92 "HgN/A
3:20 PM63 °FPassing clouds.12 mph42%29.92 "HgN/A
2:50 PM64 °FSunny.13 mph43%29.92 "Hg10 mi
2:20 PM64 °FPassing clouds.13 mph43%29.92 "HgN/A
Weather by CustomWeather, © 2014

See weather overviewHow to use our weather pages